period_start,C,m1,H,J0,J1,J2,J3,J4,J5,JA,JB,JC,JD,JJ,JK,JN,#
2016-09-07 00:01:00,0.01,2.08,0.00,22.35,26.55,29.61,14.54,48.31,1012.89,2038.34,2787.16,2570.21,2932.49,600.31,595.42,31.16,0000 0000 0000 0000 000000
2016-09-07 00:06:01,0.01,2.08,0.00,22.35,26.55,29.60,14.55,48.27,1012.80,2038.57,2787.20,2570.39,2932.81,599.98,595.01,31.21,0000 0000 0000 0000 000000
2016-09-07 00:11:02,0.02,2.08,0.00,22.36,26.54,29.58,14.53,48.23,1012.74,2038.68,2787.07,2570.26,2932.73,600.00,595.16,31.26,0000 0000 0000 0000 000000
2016-09-07 00:16:04,0.03,2.09,0.00,22.34,26.52,29.56,14.44,48.18,1012.74,2038.82,2787.02,2570.09,2932.20,599.78,594.68,31.31,0000 0000 0000 0000 000000
2016-09-07 00:21:05,0.00,2.09,0.00,22.36,26.52,29.55,14.50,48.13,1012.76,2038.94,2787.00,2570.07,2932.15,600.13,595.11,31.36,0000 0000 0000 0000 000000
2016-09-07 00:26:07,-0.00,2.09,0.00,22.35,26.51,29.57,14.51,48.32,1012.74,2038.95,2787.00,2570.05,2932.12,600.11,595.02,31.41,0000 0000 0000 0000 000000
2016-09-07 00:31:08,0.00,2.09,0.00,22.33,26.50,29.55,14.51,48.25,1012.74,2038.98,2787.00,2570.06,2932.15,600.09,595.16,31.46,0000 0000 0000 0000 000000
2016-09-07 00:36:09,0.00,2.09,0.00,22.33,26.50,29.55,14.55,48.46,1012.75,2038.98,2787.00,2570.05,2932.13,599.98,595.15,31.51,0000 0000 0000 0000 000000
2016-09-07 00:41:11,0.00,2.09,0.00,22.33,26.49,29.53,14.49,48.57,1012.74,2038.99,2786.99,2570.08,2932.20,599.90,594.99,31.57,0000 0000 0000 0000 000000
2016-09-07 00:46:12,0.00,2.09,0.00,22.30,26.47,29.53,14.51,48.51,1012.76,2038.99,2786.99,2570.07,2932.18,599.86,595.00,31.62,0000 0000 0000 0000 000000
2016-09-07 00:51:13,-0.00,2.09,0.00,22.32,26.47,29.54,14.50,48.43,1012.95,2038.99,2786.99,2570.12,2932.22,599.89,595.26,31.67,0000 0000 0000 0000 000000
2016-09-07 00:56:14,-0.00,2.09,0.00,22.30,26.46,29.53,14.41,48.48,1013.08,2038.99,2786.99,2570.18,2932.44,599.88,595.27,31.72,0000 0000 0000 0000 000000
2016-09-07 01:01:15,0.00,2.09,0.00,22.32,26.45,29.47,14.49,48.43,1013.18,2038.99,2786.99,2570.23,2932.44,599.81,595.19,31.77,0000 0000 0000 0000 000000
2016-09-07 01:06:16,-0.00,2.09,0.00,22.29,26.45,29.51,14.51,48.46,1013.15,2038.99,2786.99,2570.30,2932.44,599.96,595.45,31.82,0000 0000 0000 0000 000000
2016-09-07 01:11:18,0.00,2.08,0.00,22.29,26.44,29.48,14.56,48.39,1013.10,2038.99,2786.99,2570.46,2932.62,600.31,595.74,31.87,0000 0000 0000 0000 000000
2016-09-07 01:16:19,0.02,2.09,0.00,22.28,26.43,29.49,14.54,48.46,1013.14,2039.00,2786.80,2570.05,2932.08,600.01,595.35,31.92,0000 0000 0000 0000 000000
2016-09-07 01:21:20,0.01,2.09,0.00,22.29,26.42,29.47,14.50,48.33,1013.17,2039.01,2786.25,2570.00,2932.00,599.88,595.36,31.97,0000 0000 0000 0000 000000
2016-09-07 01:26:21,0.00,2.09,0.00,22.25,26.42,29.46,14.52,48.36,1013.20,2039.02,2786.04,2570.00,2932.00,599.93,595.52,32.02,0000 0000 0000 0000 000000
2016-09-07 01:31:23,0.01,2.09,0.00,22.27,26.42,29.46,14.54,48.36,1013.20,2039.04,2786.05,2569.99,2931.99,600.18,595.70,32.07,0000 0000 0000 0000 000000
2016-09-07 01:36:24,0.00,2.09,0.00,22.27,26.42,29.45,14.51,48.39,1013.20,2039.03,2786.03,2569.98,2931.98,599.92,595.45,32.12,0000 0000 0000 0000 000000
2016-09-07 01:41:25,0.00,2.09,0.00,22.25,26.42,29.45,14.55,48.45,1013.20,2039.02,2786.00,2569.96,2931.96,600.02,595.46,32.17,0000 0000 0000 0000 000000
2016-09-07 01:46:27,0.00,2.09,0.00,22.25,26.42,29.44,14.59,48.60,1013.20,2039.06,2786.01,2569.97,2931.98,600.35,595.93,32.22,0000 0000 0000 0000 000000
2016-09-07 01:51:28,-0.00,2.09,0.00,22.24,26.42,29.45,14.53,48.39,1013.13,2039.03,2786.03,2569.97,2931.98,600.05,595.60,32.27,0000 0000 0000 0000 000000
2016-09-07 01:56:29,0.00,2.09,0.00,22.24,26.41,29.45,14.49,48.40,1013.10,2039.06,2786.02,2569.98,2931.97,599.89,595.44,32.32,0000 0000 0000 0000 000000
2016-09-07 02:01:30,0.00,2.09,0.00,22.27,26.40,29.44,14.46,48.30,1012.79,2039.10,2786.01,2569.98,2931.98,599.82,595.12,32.37,0000 0000 0000 0000 000000
2016-09-07 02:06:31,0.03,2.09,0.00,22.24,26.40,29.46,14.55,48.43,1012.72,2039.27,2786.00,2569.96,2931.94,599.87,595.15,32.42,0000 0000 0000 0000 000000
2016-09-07 02:11:33,0.04,2.09,0.00,22.25,26.40,29.42,14.52,48.30,1012.71,2039.24,2785.27,2569.18,2931.12,599.83,595.14,32.47,0000 0000 0000 0000 000000
2016-09-07 02:16:34,0.01,2.09,0.00,22.26,26.40,29.43,14.54,48.39,1012.71,2039.20,2785.00,2569.03,2931.00,600.24,595.41,32.52,0000 0000 0000 0000 000000
2016-09-07 02:21:35,0.03,2.09,0.00,22.26,26.40,29.42,14.62,48.40,1012.71,2039.35,2785.02,2569.04,2931.02,600.55,595.66,32.57,0000 0000 0000 0000 000000
2016-09-07 02:26:36,-0.00,2.09,0.00,22.25,26.40,29.44,14.49,48.44,1012.70,2039.54,2785.08,2569.09,2931.02,599.75,595.06,32.62,0000 0000 0000 0000 000000
2016-09-07 02:31:37,-0.01,2.09,0.00,22.24,26.39,29.43,14.48,48.42,1012.54,2039.40,2785.05,2569.10,2931.02,599.86,595.09,32.67,0000 0000 0000 0000 000000
2016-09-07 02:36:39,0.01,2.09,0.00,22.23,26.37,29.41,14.55,48.37,1012.57,2039.50,2785.10,2569.16,2931.05,599.91,595.13,32.72,0000 0000 0000 0000 000000
2016-09-07 02:41:40,0.03,2.09,0.00,22.23,26.37,29.42,14.58,48.38,1012.59,2039.67,2785.07,2569.24,2931.05,600.10,595.35,32.77,0000 0000 0000 0000 000000
2016-09-07 02:46:41,-0.01,2.09,0.00,22.23,26.37,29.43,14.53,48.32,1012.45,2039.80,2785.18,2569.43,2931.13,599.93,595.02,32.82,0000 0000 0000 0000 000000
2016-09-07 02:51:43,0.00,2.09,0.00,22.23,26.36,29.42,14.54,48.27,1012.38,2039.89,2785.17,2569.54,2931.20,600.13,595.19,32.88,0000 0000 0000 0000 000000
2016-09-07 02:56:44,0.01,2.09,0.00,22.23,26.35,29.37,14.56,48.27,1012.50,2039.77,2785.05,2569.28,2931.08,600.09,595.32,32.93,0000 0000 0000 0000 000000
2016-09-07 03:01:46,-0.00,2.09,0.00,22.21,26.35,29.37,14.47,48.45,1012.58,2039.75,2785.02,2569.16,2931.04,599.93,595.15,32.98,0000 0000 0000 0000 000000
2016-09-07 03:06:47,0.02,2.10,0.00,22.22,26.35,29.39,14.55,48.45,1012.58,2039.88,2785.02,2569.18,2931.02,600.12,595.34,33.03,0000 0000 0000 0000 000000
2016-09-07 03:11:48,-0.01,2.09,0.00,22.19,26.34,29.39,14.49,48.31,1012.63,2039.76,2785.00,2569.12,2931.00,599.78,595.14,33.08,0000 0000 0000 0000 000000
2016-09-07 03:16:49,0.00,2.10,0.00,22.20,26.33,29.39,14.53,48.40,1012.55,2039.89,2785.00,2569.28,2931.05,599.82,594.97,33.13,0000 0000 0000 0000 000000
2016-09-07 03:21:50,-0.00,2.10,0.00,22.22,26.32,29.38,14.53,48.35,1012.40,2039.88,2785.01,2569.26,2931.04,600.09,595.19,33.18,0000 0000 0000 0000 000000
2016-09-07 03:26:52,-0.00,2.09,0.00,22.20,26.32,29.37,14.49,48.27,1012.32,2039.91,2785.01,2569.42,2931.08,600.16,595.27,33.23,0000 0000 0000 0000 000000
2016-09-07 03:31:53,0.00,2.10,0.00,22.16,26.32,29.39,14.51,48.33,1012.26,2039.94,2785.00,2569.46,2931.07,599.94,595.04,33.28,0000 0000 0000 0000 000000
2016-09-07 03:36:54,0.01,2.10,0.00,22.17,26.31,29.36,14.46,48.38,1012.30,2039.96,2785.00,2569.20,2931.04,599.86,595.07,33.33,0000 0000 0000 0000 000000
2016-09-07 03:41:55,0.00,2.10,0.00,22.19,26.30,29.35,14.46,48.38,1012.26,2039.97,2785.00,2569.30,2931.04,599.81,594.86,33.38,0000 0000 0000 0000 000000
2016-09-07 03:46:57,-0.00,2.10,0.00,22.18,26.30,29.34,14.45,48.26,1012.24,2039.98,2785.00,2569.48,2931.08,599.86,595.04,33.43,0000 0000 0000 0000 000000
2016-09-07 03:51:58,-0.01,2.10,0.00,22.18,26.30,29.34,14.50,48.33,1012.26,2039.99,2785.00,2569.64,2931.14,600.22,595.35,33.48,0000 0000 0000 0000 000000
2016-09-07 03:56:58,0.01,2.09,0.00,22.16,26.30,29.35,14.53,48.39,1012.27,2039.98,2785.00,2569.65,2931.21,600.05,595.22,33.53,0000 0000 0000 0000 000000
2016-09-07 04:01:59,0.00,2.10,0.00,22.16,26.28,29.34,14.51,48.46,1012.24,2039.99,2784.99,2569.49,2931.06,600.13,595.25,33.58,0000 0000 0000 0000 000000
2016-09-07 04:07:00,-0.01,2.10,0.00,22.16,26.27,29.33,14.57,48.46,1012.23,2039.99,2784.99,2569.68,2931.20,600.09,595.16,33.63,0000 0000 0000 0000 000000
2016-09-07 04:12:02,0.00,2.09,0.00,22.13,26.27,29.34,14.51,48.56,1012.24,2039.99,2784.99,2569.81,2931.29,599.79,595.07,33.68,0000 0000 0000 0000 000000
2016-09-07 04:17:03,-0.01,2.09,0.00,22.14,26.27,29.35,14.54,48.31,1012.25,2039.99,2784.99,2569.87,2931.45,600.02,595.20,33.74,0000 0000 0000 0000 000000
2016-09-07 04:22:04,-0.00,2.09,0.00,22.14,26.26,29.32,14.61,48.41,1012.38,2039.99,2785.01,2569.97,2931.85,600.53,595.80,33.79,0000 0000 0000 0000 000000
2016-09-07 04:27:05,0.00,2.09,0.00,22.15,26.25,29.33,14.54,48.27,1012.40,2039.99,2785.04,2569.97,2931.91,600.02,595.37,33.84,0000 0000 0000 0000 000000
2016-09-07 04:32:06,0.00,2.09,0.00,22.15,26.25,29.31,14.53,48.31,1012.35,2039.99,2785.04,2569.98,2931.95,600.15,595.43,33.89,0000 0000 0000 0000 000000
2016-09-07 04:37:07,0.00,2.09,0.00,22.13,26.25,29.33,14.49,48.39,1012.24,2039.99,2785.03,2569.99,2931.93,599.82,595.03,33.94,0000 0000 0000 0000 000000
2016-09-07 04:42:09,0.00,2.09,0.00,22.15,26.25,29.29,14.55,48.39,1012.23,2039.99,2785.01,2569.97,2931.88,600.04,595.19,33.99,0000 0000 0000 0000 000000
2016-09-07 04:47:10,0.00,2.09,0.00,22.13,26.23,29.28,14.56,48.41,1012.25,2039.99,2785.01,2569.97,2931.82,600.11,595.42,34.04,0000 0000 0000 0000 000000
2016-09-07 04:52:11,-0.00,2.09,0.00,22.12,26.22,29.28,14.56,48.40,1012.27,2039.99,2785.01,2569.97,2931.82,600.34,595.56,34.09,0000 0000 0000 0000 000000
2016-09-07 04:57:12,0.00,2.09,0.00,22.12,26.22,29.32,14.56,48.27,1012.30,2039.99,2785.00,2569.97,2931.83,600.05,595.33,34.14,0000 0000 0000 0000 000000
2016-09-07 05:02:13,0.01,2.09,0.00,22.13,26.22,29.32,14.52,48.37,1012.32,2040.00,2784.99,2569.89,2931.43,600.14,595.44,34.19,0000 0000 0000 0000 000000
2016-09-07 05:07:14,0.04,2.10,0.00,22.12,26.22,29.29,14.50,48.30,1012.32,2040.00,2784.34,2569.27,2931.02,599.88,595.12,34.24,0000 0000 0000 0000 000000
2016-09-07 05:12:16,0.02,2.10,0.00,22.13,26.22,29.28,14.51,48.31,1012.33,2040.00,2783.71,2568.92,2930.74,599.93,595.13,34.29,0000 0000 0000 0000 000000
2016-09-07 05:17:17,0.16,2.10,0.00,22.09,26.21,29.29,14.50,48.38,1012.23,2040.00,2781.30,2567.47,2929.03,599.98,595.32,34.34,0000 0000 0000 0000 000000
2016-09-07 05:22:19,0.16,2.11,0.00,22.09,26.20,29.28,14.54,48.48,1012.22,2040.00,2778.34,2565.62,2926.96,600.01,595.24,34.39,0000 0000 0000 0000 000000
2016-09-07 05:27:20,0.11,2.12,0.00,22.10,26.20,29.27,14.57,48.39,1012.23,2040.00,2776.22,2564.14,2925.42,600.24,595.58,34.44,0000 0000 0000 0000 000000
2016-09-07 05:32:21,0.14,2.12,0.00,22.10,26.20,29.26,14.47,48.39,1012.27,2040.00,2773.84,2562.53,2923.61,600.13,595.52,34.49,0000 0000 0000 0000 000000
2016-09-07 05:37:22,0.26,2.14,0.00,22.09,26.20,29.25,14.58,48.52,1012.40,2040.00,2769.81,2559.90,2920.61,600.30,595.65,34.54,0000 0000 0000 0000 000000
2016-09-07 05:42:24,0.10,2.15,0.00,22.06,26.20,29.27,14.53,48.42,1012.59,2040.00,2767.14,2558.12,2918.77,599.99,595.57,34.59,0000 0000 0000 0000 000000
2016-09-07 05:47:25,0.03,2.15,0.00,22.07,26.19,29.28,14.51,48.41,1012.66,2040.00,2766.62,2557.95,2918.10,600.00,595.60,34.64,0000 0000 0000 0000 000000
2016-09-07 05:52:27,0.12,2.15,0.00,22.06,26.18,29.25,14.55,48.36,1012.58,2040.00,2764.94,2556.77,2917.11,599.85,595.45,34.70,0000 0000 0000 0000 000000
2016-09-07 05:57:28,0.18,2.16,0.00,22.05,26.17,29.24,14.47,48.32,1012.62,2040.00,2761.64,2554.57,2914.60,599.97,595.57,34.75,0000 0000 0000 0000 000000
2016-09-07 06:02:29,0.02,2.17,0.00,22.06,26.17,29.25,14.52,48.37,1012.61,2040.00,2760.37,2553.99,2913.98,600.19,595.75,34.80,0000 0000 0000 0000 000000
2016-09-07 06:07:31,0.00,2.17,0.00,22.08,26.17,29.25,14.52,48.63,1012.47,2040.01,2760.05,2553.98,2913.95,600.23,595.68,34.85,0000 0000 0000 0000 000000
2016-09-07 06:12:32,0.01,2.17,0.00,22.05,26.17,29.26,14.49,48.48,1012.59,2040.00,2759.99,2553.81,2913.59,599.89,595.51,34.90,0000 0000 0000 0000 000000
2016-09-07 06:17:33,0.03,2.17,0.00,22.05,26.17,29.23,14.53,48.43,1012.69,2040.01,2759.81,2553.20,2913.04,599.95,595.53,34.95,0000 0000 0000 0000 000000
2016-09-07 06:22:35,0.01,2.17,0.00,22.07,26.16,29.21,14.50,48.45,1012.71,2040.00,2759.46,2553.08,2913.01,599.99,595.47,35.00,0000 0000 0000 0000 000000
2016-09-07 06:27:36,0.01,2.17,0.00,22.05,26.15,29.21,14.57,48.43,1012.70,2040.02,2759.02,2553.01,2913.00,600.10,595.68,35.05,0000 0000 0000 0000 000000
2016-09-07 06:32:37,0.00,2.17,0.00,22.03,26.15,29.23,14.55,48.32,1012.69,2040.04,2758.95,2553.00,2912.99,600.06,595.81,35.10,0000 0000 0000 0000 000000
2016-09-07 06:37:38,0.02,2.17,0.00,22.03,26.15,29.22,14.47,48.38,1012.69,2040.04,2758.21,2552.99,2912.74,599.96,595.69,35.15,0000 0000 0000 0000 000000
2016-09-07 06:42:39,0.02,2.17,0.00,22.05,26.15,29.20,14.57,48.34,1012.66,2040.07,2758.00,2552.91,2912.43,600.00,595.63,35.20,0000 0000 0000 0000 000000
2016-09-07 06:47:40,0.05,2.17,0.00,22.02,26.14,29.21,14.47,48.29,1012.69,2040.10,2757.55,2552.27,2912.01,599.77,595.51,35.25,0000 0000 0000 0000 000000
2016-09-07 06:52:41,0.01,2.18,0.00,22.02,26.12,29.21,14.57,48.39,1012.70,2040.11,2756.97,2552.02,2911.98,600.13,595.81,35.30,0000 0000 0000 0000 000000
2016-09-07 06:57:42,0.02,2.18,0.00,22.02,26.12,29.19,14.47,48.32,1012.71,2040.06,2756.19,2551.99,2911.44,599.77,595.44,35.35,0000 0000 0000 0000 000000
2016-09-07 07:02:43,0.00,2.18,0.00,22.02,26.12,29.21,14.61,48.45,1012.71,2040.11,2756.04,2551.99,2911.43,600.26,595.86,35.40,0000 0000 0000 0000 000000
2016-09-07 07:07:45,0.01,2.18,0.00,22.00,26.12,29.20,14.58,48.32,1012.71,2040.12,2756.02,2551.98,2911.12,600.06,595.80,35.45,0000 0000 0000 0000 000000
2016-09-07 07:12:46,0.01,2.18,0.00,21.99,26.11,29.20,14.53,48.39,1012.57,2040.17,2756.01,2551.98,2911.13,599.83,595.46,35.50,0000 0000 0000 0000 000000
2016-09-07 07:17:47,0.00,2.18,0.00,21.99,26.10,29.16,14.55,48.38,1012.45,2040.18,2756.02,2551.97,2911.12,599.79,595.43,35.55,0000 0000 0000 0000 000000
2016-09-07 07:22:48,-0.00,2.18,0.00,22.03,26.10,29.17,14.55,48.37,1012.65,2040.17,2756.00,2551.98,2911.07,599.89,595.43,35.60,0000 0000 0000 0000 000000
2016-09-07 07:27:49,0.00,2.18,0.00,22.00,26.10,29.15,14.47,48.38,1012.62,2040.16,2756.01,2551.98,2911.06,599.71,595.52,35.66,0000 0000 0000 0000 000000
2016-09-07 07:32:50,0.00,2.18,0.00,22.00,26.10,29.15,14.47,48.48,1012.64,2040.18,2756.00,2551.98,2911.04,599.88,595.61,35.71,0000 0000 0000 0000 000000
2016-09-07 07:37:51,0.01,2.18,0.00,21.98,26.08,29.14,14.55,48.31,1012.70,2040.25,2756.00,2551.97,2911.04,600.18,595.87,35.76,0000 0000 0000 0000 000000
2016-09-07 07:42:52,-0.01,2.18,0.00,21.99,26.07,29.17,14.44,48.26,1012.70,2040.19,2755.99,2551.96,2911.01,599.64,595.40,35.81,0000 0000 0000 0000 000000
2016-09-07 07:47:54,0.01,2.18,0.00,21.97,26.07,29.13,14.52,48.35,1012.71,2040.23,2755.97,2551.85,2911.00,599.79,595.71,35.86,0000 0000 0000 0000 000000
2016-09-07 07:52:55,0.04,2.18,0.00,21.97,26.07,29.10,14.53,48.38,1012.70,2040.65,2755.96,2551.92,2911.01,600.24,596.10,35.91,0000 0000 0000 0000 000000
2016-09-07 07:57:56,0.01,2.18,0.00,21.97,26.07,29.12,14.49,48.42,1012.71,2040.69,2755.93,2551.89,2911.01,600.19,595.96,35.96,0000 0000 0000 0000 000000
2016-09-07 08:02:58,0.01,2.18,0.00,21.96,26.05,29.16,14.58,48.38,1012.71,2040.86,2755.90,2551.89,2911.01,600.30,596.11,36.01,0000 0000 0000 0000 000000
2016-09-07 08:07:59,0.00,2.18,0.00,21.94,26.05,29.14,14.54,48.35,1012.71,2040.87,2755.82,2551.91,2911.01,600.23,595.99,36.06,0000 0000 0000 0000 000000
2016-09-07 08:13:01,0.00,2.18,0.00,21.95,26.05,29.15,14.57,48.38,1012.71,2040.94,2755.81,2551.91,2911.01,599.82,595.66,36.11,0000 0000 0000 0000 000000
2016-09-07 08:18:01,0.00,2.18,0.00,21.94,26.05,29.14,14.51,48.41,1012.71,2040.95,2755.86,2551.95,2911.01,599.95,595.76,36.16,0000 0000 0000 0000 000000
2016-09-07 08:23:03,0.01,2.18,0.00,21.93,26.04,29.11,14.53,48.39,1012.71,2040.93,2755.61,2551.89,2911.00,599.82,595.73,36.21,0000 0000 0000 0000 000000
2016-09-07 08:28:04,0.00,2.18,0.00,21.93,26.02,29.12,14.48,48.26,1012.71,2040.91,2755.29,2551.80,2911.00,599.90,595.90,36.26,0000 0000 0000 0000 000000
2016-09-07 08:33:05,0.02,2.18,0.00,21.92,26.02,29.12,14.56,48.42,1012.72,2040.94,2755.05,2551.55,2911.00,600.24,596.18,36.31,0000 0000 0000 0000 000000
2016-09-07 08:38:06,0.01,2.18,0.00,21.91,26.02,29.11,14.55,48.47,1012.71,2040.96,2755.00,2551.22,2910.99,600.11,596.12,36.36,0000 0000 0000 0000 000000
2016-09-07 08:43:07,0.00,2.18,0.00,21.87,26.02,29.12,14.44,48.41,1012.71,2040.97,2755.00,2551.22,2910.98,599.74,595.79,36.41,0000 0000 0000 0000 000000
2016-09-07 08:48:09,0.00,2.18,0.00,21.88,26.00,29.11,14.56,48.36,1012.71,2040.99,2754.98,2551.09,2910.96,600.17,596.03,36.46,0000 0000 0000 0000 000000
2016-09-07 08:53:10,0.00,2.18,0.00,21.90,26.00,29.09,14.55,48.41,1012.73,2040.99,2754.99,2551.04,2910.95,599.64,595.58,36.52,0000 0000 0000 0000 000000
2016-09-07 08:58:11,-0.00,2.18,0.00,21.88,26.00,29.09,14.51,48.49,1012.74,2040.99,2754.99,2551.10,2910.97,600.35,596.46,36.57,0000 0000 0000 0000 000000
2016-09-07 09:03:13,-0.00,2.18,0.00,21.89,26.00,29.07,14.56,48.40,1013.02,2040.99,2754.99,2551.06,2910.97,599.93,596.20,36.62,0000 0000 0000 0000 000000
2016-09-07 09:08:14,0.00,2.18,0.00,21.87,25.98,29.06,14.55,48.48,1012.96,2040.99,2754.98,2551.10,2910.96,599.94,596.15,36.67,0000 0000 0000 0000 000000
2016-09-07 09:13:15,-0.00,2.18,0.00,21.86,25.97,29.05,14.53,48.32,1013.00,2040.99,2754.98,2551.20,2910.97,599.92,596.22,36.72,0000 0000 0000 0000 000000
2016-09-07 09:18:16,-0.00,2.18,0.00,21.87,25.97,29.07,14.50,48.38,1013.14,2040.99,2754.98,2551.12,2910.98,600.49,596.79,36.77,0000 0000 0000 0000 000000
2016-09-07 09:23:18,-0.01,2.18,0.00,21.86,25.97,29.08,14.60,48.35,1013.15,2040.99,2754.99,2551.37,2910.99,600.08,596.38,36.82,0000 0000 0000 0000 000000
2016-09-07 09:28:19,-0.00,2.18,0.00,21.84,25.95,29.04,14.59,48.51,1013.07,2040.99,2754.99,2551.54,2910.99,600.29,596.55,36.87,0000 0000 0000 0000 000000
2016-09-07 09:33:20,-0.01,2.18,0.00,21.84,25.95,29.08,14.54,48.37,1013.06,2040.99,2754.99,2551.75,2910.99,599.95,596.23,36.92,0000 0000 0000 0000 000000
2016-09-07 09:38:21,0.00,2.18,0.00,21.83,25.95,29.03,14.49,48.26,1012.95,2040.99,2754.99,2551.82,2910.99,599.93,596.17,36.97,0000 0000 0000 0000 000000
2016-09-07 09:43:22,0.00,2.18,0.00,21.81,25.94,29.04,14.53,48.38,1012.91,2040.99,2754.99,2551.77,2911.00,599.99,596.30,37.02,0000 0000 0000 0000 000000
2016-09-07 09:48:24,0.00,2.18,0.00,21.80,25.92,29.03,14.53,48.32,1012.80,2040.99,2754.99,2551.78,2910.99,599.67,595.77,37.07,0000 0000 0000 0000 000000
2016-09-07 09:53:25,0.00,2.18,0.00,21.80,25.92,29.04,14.55,48.27,1012.77,2040.99,2754.99,2551.83,2910.99,600.26,596.50,37.12,0000 0000 0000 0000 000000
2016-09-07 09:58:26,0.00,2.18,0.00,21.81,25.92,29.04,14.53,48.30,1012.81,2040.99,2754.99,2551.84,2910.99,600.07,596.26,37.17,0000 0000 0000 0000 000000
2016-09-07 10:03:27,0.00,2.18,0.00,21.80,25.91,29.02,14.55,48.34,1012.96,2041.01,2754.99,2551.91,2911.00,600.06,596.37,37.22,0000 0000 0000 0000 000000
2016-09-07 10:08:29,-0.00,2.18,0.00,21.79,25.90,29.00,14.56,48.39,1013.13,2041.02,2754.98,2551.91,2911.00,600.06,596.44,37.27,0000 0000 0000 0000 000000
2016-09-07 10:13:30,-0.00,2.18,0.00,21.76,25.90,28.99,14.57,48.43,1013.18,2041.00,2754.98,2551.93,2911.00,600.25,596.90,37.32,0000 0000 0000 0000 000000
2016-09-07 10:18:31,0.03,2.18,0.00,21.74,25.89,28.96,14.58,48.48,1013.17,2041.01,2754.75,2551.54,2910.98,600.02,596.62,37.37,0000 0000 0000 0000 000000
2016-09-07 10:23:33,0.02,2.19,0.00,21.76,25.87,28.97,14.57,48.56,1013.15,2041.00,2754.06,2551.05,2910.76,599.53,595.99,37.42,0000 0000 0000 0000 000000
2016-09-07 10:28:34,0.00,2.19,0.00,21.74,25.87,28.99,14.56,48.45,1013.16,2041.06,2754.01,2551.07,2910.90,599.78,596.43,37.48,0000 0000 0000 0000 000000
2016-09-07 10:33:35,-0.01,2.19,0.00,21.74,25.87,28.95,14.56,48.53,1013.16,2041.05,2754.01,2551.08,2910.93,599.89,596.30,37.53,0000 0000 0000 0000 000000
2016-09-07 10:38:37,-0.00,2.19,0.00,21.71,25.85,28.96,14.63,48.52,1013.18,2041.09,2754.06,2551.15,2910.96,600.33,597.02,37.58,0000 0000 0000 0000 000000
2016-09-07 10:43:38,0.01,2.19,0.00,21.73,25.85,28.95,14.50,48.73,1013.20,2041.10,2754.05,2551.18,2910.96,599.97,596.51,37.63,0000 0000 0000 0000 000000
2016-09-07 10:48:39,0.01,2.19,0.00,21.71,25.85,28.94,14.59,48.49,1013.20,2041.28,2754.07,2551.43,2910.97,600.13,596.72,37.68,0000 0000 0000 0000 000000
2016-09-07 10:53:40,0.01,2.19,0.00,21.68,25.83,28.93,14.59,48.37,1013.20,2041.44,2754.08,2551.61,2910.99,599.92,596.64,37.73,0000 0000 0000 0000 000000
2016-09-07 10:58:41,0.01,2.19,0.00,21.68,25.82,28.93,14.51,48.40,1013.20,2041.51,2754.18,2551.73,2910.99,600.08,596.88,37.78,0000 0000 0000 0000 000000
2016-09-07 11:03:43,0.01,2.19,0.00,21.68,25.82,28.92,14.54,48.46,1013.20,2041.81,2754.49,2551.94,2910.99,600.36,597.05,37.83,0000 0000 0000 0000 000000
2016-09-07 11:08:44,-0.01,2.19,0.00,21.65,25.81,28.91,14.53,48.37,1013.20,2041.76,2754.54,2551.94,2910.99,599.88,596.66,37.88,0000 0000 0000 0000 000000
2016-09-07 11:13:45,0.01,2.19,0.00,21.66,25.80,28.90,14.62,48.48,1013.20,2041.79,2754.15,2551.94,2910.99,600.25,596.90,37.93,0000 0000 0000 0000 000000
2016-09-07 11:18:47,0.02,2.19,0.00,21.67,25.80,28.86,14.57,48.50,1013.20,2041.91,2754.08,2551.94,2910.99,599.93,596.65,37.98,0000 0000 0000 0000 000000
2016-09-07 11:23:48,-0.00,2.19,0.00,21.66,25.79,28.89,14.59,48.52,1013.20,2041.90,2754.15,2551.96,2910.99,600.04,596.79,38.03,0000 0000 0000 0000 000000
2016-09-07 11:28:49,0.00,2.19,0.00,21.63,25.77,28.88,14.55,48.47,1013.21,2041.95,2754.43,2551.97,2911.00,600.03,596.91,38.08,0000 0000 0000 0000 000000
2016-09-07 11:33:50,0.00,2.19,0.00,21.62,25.77,28.89,14.58,48.52,1013.20,2041.96,2754.52,2551.98,2911.01,599.95,596.85,38.13,0000 0000 0000 0000 000000
2016-09-07 11:38:51,0.01,2.19,0.00,21.63,25.76,28.87,14.56,48.44,1013.20,2041.96,2754.11,2551.96,2911.00,599.76,596.56,38.18,0000 0000 0000 0000 000000
2016-09-07 11:43:53,-0.00,2.19,0.00,21.61,25.75,28.85,14.57,48.37,1013.20,2041.98,2754.16,2551.98,2911.00,600.03,596.81,38.23,0000 0000 0000 0000 000000
2016-09-07 11:48:54,-0.00,2.19,0.00,21.59,25.75,28.85,14.56,48.47,1013.20,2041.98,2754.30,2551.99,2911.01,600.03,596.89,38.28,0000 0000 0000 0000 000000
2016-09-07 11:53:55,-0.00,2.19,0.00,21.60,25.73,28.84,14.53,48.60,1013.20,2041.98,2754.43,2551.99,2911.02,600.01,596.62,38.34,0000 0000 0000 0000 000000
2016-09-07 11:58:57,-0.00,2.19,0.00,21.59,25.72,28.82,14.60,48.61,1013.20,2041.99,2754.54,2551.99,2911.06,599.69,596.57,38.39,0000 0000 0000 0000 000000
2016-09-07 12:03:58,0.01,2.19,0.00,21.58,25.72,28.84,14.56,48.52,1013.20,2041.99,2754.09,2551.98,2911.01,599.95,596.96,38.44,0000 0000 0000 0000 000000
2016-09-07 12:08:59,0.01,2.19,0.00,21.57,25.71,28.84,14.62,48.38,1013.20,2041.99,2754.00,2551.80,2910.98,599.97,597.01,38.49,0000 0000 0000 0000 000000
2016-09-07 12:14:00,0.01,2.19,0.00,21.57,25.70,28.80,14.55,48.44,1013.20,2041.99,2753.96,2551.42,2910.97,599.92,596.96,38.54,0000 0000 0000 0000 000000
2016-09-07 12:19:02,-0.00,2.19,0.00,21.56,25.69,28.75,14.48,48.38,1013.21,2041.99,2753.90,2551.39,2910.96,599.70,596.65,38.59,0000 0000 0000 0000 000000
2016-09-07 12:24:03,-0.00,2.19,0.00,21.53,25.67,28.77,14.53,48.45,1013.22,2041.99,2753.84,2551.37,2910.97,600.00,596.90,38.64,0000 0000 0000 0000 000000
2016-09-07 12:29:05,-0.01,2.19,0.00,21.55,25.67,28.76,14.55,48.40,1013.26,2041.99,2753.94,2551.69,2910.97,599.79,596.67,38.69,0000 0000 0000 0000 000000
2016-09-07 12:34:06,-0.00,2.19,0.00,21.52,25.67,28.79,14.60,48.38,1013.29,2041.99,2753.97,2551.87,2910.99,600.31,597.40,38.74,0000 0000 0000 0000 000000
2016-09-07 12:39:07,-0.00,2.19,0.00,21.49,25.65,28.77,14.62,48.50,1013.36,2041.99,2753.98,2551.93,2910.99,600.35,597.51,38.79,0000 0000 0000 0000 000000
2016-09-07 12:44:09,0.00,2.19,0.00,21.49,25.65,28.77,14.60,48.53,1013.49,2042.01,2753.97,2551.97,2910.99,600.16,597.41,38.84,0000 0000 0000 0000 000000
2016-09-07 12:49:10,0.00,2.19,0.00,21.50,25.63,28.71,14.62,48.52,1013.44,2042.00,2753.98,2551.98,2910.99,600.18,597.40,38.89,0000 0000 0000 0000 000000
2016-09-07 12:54:11,0.00,2.19,0.00,21.47,25.62,28.73,14.58,48.53,1013.41,2042.01,2753.99,2551.97,2910.99,600.25,597.58,38.94,0000 0000 0000 0000 000000